DW9711 Weather Reports


Display with metric or nautical units.
time (UTC)temp
F
wind
direction
speed
MPH
gust
MPH
rain 1hr
in
rain 24hr
in
rain mn
in
humidity
%
barometer
mb
20260903222538 99 188 0.0 3.0 0.00 0.00 0.00 47 1011.0
20260903222039 99 188 0.0 3.0 0.00 0.00 0.00 45 1011.0
20260903221539 99 200 0.0 2.0 0.00 0.00 0.00 47 1011.0
20260903221038 100 200 0.0 3.0 0.00 0.00 0.00 43 1011.0
20260903220538 100 200 0.0 2.0 0.00 0.00 0.00 45 1010.9
20260903220038 100 200 0.0 2.0 0.00 0.00 0.00 45 1011.0
20260903215539 100 200 0.0 2.0 0.00 0.00 0.00 42 1010.9
20260903215036 100 200 0.0 3.0 0.00 0.00 0.00 46 1010.9
20260903214540 99 200 0.0 3.0 0.00 0.00 0.00 44 1011.0
20260903214036 99 200 0.0 4.0 0.00 0.00 0.00 44 1011.1
20260903213538 99 200 1.0 4.0 0.00 0.00 0.00 43 1011.0
20260903213042 99 225 0.0 3.0 0.00 0.00 0.00 45 1011.1
20260903212535 99 225 1.0 3.0 0.00 0.00 0.00 45 1011.2
20260903212034 99 225 0.0 5.0 0.00 0.00 0.00 45 1011.2
20260903211535 99 225 0.0 5.0 0.00 0.00 0.00 45 1011.3
20260903211032 99 189 1.0 3.0 0.00 0.00 0.00 45 1011.4
20260903210532 99 160 0.0 3.0 0.00 0.00 0.00 45 1011.4
20260903210031 99 160 1.0 4.0 0.00 0.00 0.00 45 1011.4
20260903205530 99 160 1.0 4.0 0.00 0.00 0.00 44 1011.5
20260903205030 99 158 0.0 2.0 0.00 0.00 0.00 49 1011.5
20260903204529 99 158 0.0 1.0 0.00 0.00 0.00 46 1011.5
20260903204029 98 158 0.0 3.0 0.00 0.00 0.00 46 1011.6
20260903203533 99 158 1.0 5.0 0.00 0.00 0.00 45 1011.7
20260903203029 100 152 1.0 5.0 0.00 0.00 0.00 45 1011.6
20260903202528 99 184 0.0 4.0 0.00 0.00 0.00 46 1011.6
20260903202027 99 184 1.0 4.0 0.00 0.00 0.00 45 1011.8
20260903201533 99 190 0.0 5.0 0.00 0.00 0.00 47 1011.8
20260903201030 99 190 2.0 5.0 0.00 0.00 0.00 47 1011.8
20260903200532 99 120 1.0 5.0 0.00 0.00 0.00 45 1011.9
20260903200024 99 118 0.0 4.0 0.00 0.00 0.00 45 1011.9
20260903195523 99 113 1.0 5.0 0.00 0.00 0.00 47 1012.0
20260903195026 99 116 1.0 5.0 0.00 0.00 0.00 48 1012.1
20260903194525 98 186 0.0 2.0 0.00 0.00 0.00 47 1012.1
20260903194020 97 63 0.0 0.0 0.00 0.00 0.00 49 1012.1
20260903193520 97 63 0.0 2.0 0.00 0.00 0.00 49 1012.2
20260903193020 97 52 0.0 3.0 0.00 0.00 0.00 51 1012.2
20260903192526 97 52 1.0 3.0 0.00 0.00 0.00 52 1012.3
20260903192021 98 53 0.0 3.0 0.00 0.00 0.00 48 1012.3
20260903191518 98 53 1.0 5.0 0.00 0.00 0.00 49 1012.3
20260903191018 98 39 1.0 5.0 0.00 0.00 0.00 50 1012.5
20260903190517 98 184 0.0 5.0 0.00 0.00 0.00 48 1012.5
20260903190016 98 186 1.0 5.0 0.00 0.00 0.00 44 1012.6
20260903185513 98 130 0.0 3.0 0.00 0.00 0.00 48 1012.7
20260903185013 98 321 0.0 3.0 0.00 0.00 0.00 47 1012.7
20260903184513 97 321 0.0 3.0 0.00 0.00 0.00 49 1012.8
20260903184013 98 321 0.0 4.0 0.00 0.00 0.00 47 1012.8
20260903183511 97 321 1.0 4.0 0.00 0.00 0.00 49 1012.8
20260903183011 97 302 1.0 4.0 0.00 0.00 0.00 48 1012.8
20260903182512 97 302 1.0 4.0 0.00 0.00 0.00 49 1012.9
20260903182008 96 302 0.0 3.0 0.00 0.00 0.00 48 1012.9
20260903181508 96 302 1.0 4.0 0.00 0.00 0.00 49 1013.0
20260903181008 96 302 1.0 4.0 0.00 0.00 0.00 50 1013.0
20260903180510 97 301 1.0 4.0 0.00 0.00 0.00 51 1013.1
20260903180012 96 286 0.0 4.0 0.00 0.00 0.00 50 1013.2
20260903175510 96 314 1.0 4.0 0.00 0.00 0.00 51 1013.2
20260903175004 96 313 0.0 2.0 0.00 0.00 0.00 52 1013.3
20260903174505 96 313 0.0 4.0 0.00 0.00 0.00 54 1013.3
20260903174006 96 313 1.0 4.0 0.00 0.00 0.00 50 1013.3
20260903173503 96 313 1.0 4.0 0.00 0.00 0.00 50 1013.4
20260903173003 95 313 0.0 4.0 0.00 0.00 0.00 53 1013.5
20260903172503 96 313 0.0 4.0 0.00 0.00 0.00 52 1013.5
20260903172002 95 296 0.0 3.0 0.00 0.00 0.00 53 1013.5
20260903171506 95 296 0.0 3.0 0.00 0.00 0.00 49 1013.6
20260903171033 95 296 0.0 5.0 0.00 0.00 0.00 50 1013.5
20260903170600 96 296 1.0 5.0 0.00 0.00 0.00 48 1013.6
20260903170105 96 333 1.0 4.0 0.00 0.00 0.00 50 1013.6
20260903165559 96 304 2.0 4.0 0.00 0.00 0.00 49 1013.6
20260903165101 96 275 0.0 4.0 0.00 0.00 0.00 51 1013.8
20260903164556 96 275 0.0 5.0 0.00 0.00 0.00 51 1013.8
20260903164055 96 298 1.0 6.0 0.00 0.00 0.00 51 1013.9
20260903163555 95 290 1.0 4.0 0.00 0.00 0.00 50 1014.0
20260903163053 95 224 0.0 5.0 0.00 0.00 0.00 49 1014.0
20260903162553 95 227 0.0 5.0 0.00 0.00 0.00 51 1014.1
20260903162051 95 219 1.0 5.0 0.00 0.00 0.00 52 1014.1
20260903161550 94 194 1.0 4.0 0.00 0.00 0.00 51 1014.1
20260903161049 94 196 1.0 4.0 0.00 0.00 0.00 52 1014.1
20260903160548 94 215 0.0 4.0 0.00 0.00 0.00 53 1014.1
20260903160047 94 215 1.0 5.0 0.00 0.00 0.00 54 1014.1
20260903155545 93 255 1.0 5.0 0.00 0.00 0.00 56 1014.1
20260903155045 93 202 0.0 5.0 0.00 0.00 0.00 55 1014.1
20260903154547 93 202 1.0 4.0 0.00 0.00 0.00 56 1014.1
20260903154042 93 202 1.0 4.0 0.00 0.00 0.00 59 1014.1
20260903153540 92 202 0.0 4.0 0.00 0.00 0.00 58 1014.2
20260903153046 92 194 1.0 6.0 0.00 0.00 0.00 61 1014.3
20260903152538 91 199 2.0 6.0 0.00 0.00 0.00 60 1014.3
20260903152039 91 209 1.0 4.0 0.00 0.00 0.00 64 1014.2
20260903151537 91 209 0.0 5.0 0.00 0.00 0.00 64 1014.2
20260903151034 90 209 0.0 5.0 0.00 0.00 0.00 64 1014.2
20260903150535 90 209 0.0 3.0 0.00 0.00 0.00 64 1014.3
20260903150032 90 209 0.0 3.0 0.00 0.00 0.00 64 1014.2
20260903145530 89 210 0.0 4.0 0.00 0.00 0.00 66 1014.2
20260903145029 89 215 0.0 4.0 0.00 0.00 0.00 67 1014.2
20260903144528 89 215 1.0 4.0 0.00 0.00 0.00 67 1014.2
20260903144026 88 215 0.0 2.0 0.00 0.00 0.00 68 1014.2
20260903143527 88 215 0.0 4.0 0.00 0.00 0.00 69 1014.2
20260903143022 87 215 0.0 4.0 0.00 0.00 0.00 70 1014.2
20260903142521 87 215 0.0 5.0 0.00 0.00 0.00 71 1014.2
20260903142021 86 215 0.0 5.0 0.00 0.00 0.00 71 1014.3
20260903141530 86 215 0.0 5.0 0.00 0.00 0.00 71 1014.3
20260903141017 85 161 0.0 0.0 0.00 0.00 0.00 74 1014.4
20260903140516 85 161 0.0 0.0 0.00 0.00 0.00 75 1014.4
20260903140016 84 161 0.0 0.0 0.00 0.00 0.00 74 1014.3
20260903135512 84 126 0.0 0.0 0.00 0.00 0.00 75 1014.4
20260903135011 83 125 0.0 0.0 0.00 0.00 0.00 75 1014.5
20260903134509 83 124 0.0 0.0 0.00 0.00 0.00 78 1014.5
20260903134008 83 124 0.0 0.0 0.00 0.00 0.00 77 1014.5
20260903133507 82 124 0.0 0.0 0.00 0.00 0.00 78 1014.5
20260903133006 82 124 0.0 0.0 0.00 0.00 0.00 79 1014.5
20260903132505 82 124 0.0 0.0 0.00 0.00 0.00 80 1014.5
20260903132005 81 124 0.0 0.0 0.00 0.00 0.00 80 1014.5
20260903131502 81 124 0.0 0.0 0.00 0.00 0.00 81 1014.5
20260903131100 81 124 0.0 0.0 0.00 0.00 0.00 81 1014.5
20260903130559 80 124 0.0 0.0 0.00 0.00 0.00 82 1014.5
20260903130058 80 124 0.0 0.0 0.00 0.00 0.00 83 1014.4
20260903125556 79 124 0.0 0.0 0.00 0.00 0.00 83 1014.5
20260903125056 79 124 0.0 0.0 0.00 0.00 0.00 83 1014.5
20260903124556 79 124 0.0 0.0 0.00 0.00 0.00 83 1014.5
20260903124053 78 124 0.0 0.0 0.00 0.00 0.00 84 1014.4
20260903123552 78 124 0.0 0.0 0.00 0.00 0.00 85 1014.5
20260903123051 77 124 0.0 0.0 0.00 0.00 0.00 85 1014.5
20260903122552 77 124 0.0 0.0 0.00 0.00 0.00 86 1014.4
20260903122049 77 124 0.0 0.0 0.00 0.00 0.00 85 1014.4
20260903121548 77 124 0.0 0.0 0.00 0.00 0.00 85 1014.4
20260903121051 77 124 0.0 0.0 0.00 0.00 0.00 86 1014.3
20260903120547 77 124 0.0 0.0 0.00 0.00 0.00 86 1014.4
20260903120050 76 124 0.0 0.0 0.00 0.00 0.00 86 1014.3
20260903115545 76 124 0.0 0.0 0.00 0.00 0.00 87 1014.3
20260903115045 76 124 0.0 0.0 0.00 0.00 0.00 87 1014.2
20260903114545 76 124 0.0 0.0 0.00 0.00 0.00 87 1014.2
20260903114043 76 124 0.0 0.0 0.00 0.00 0.00 87 1014.1
20260903113542 76 124 0.0 0.0 0.00 0.00 0.00 87 1014.1
20260903113041 76 124 0.0 0.0 0.00 0.00 0.00 87 1014.0
20260903112541 76 124 0.0 0.0 0.00 0.00 0.00 87 1013.9
20260903112040 76 124 0.0 0.0 0.00 0.00 0.00 86 1014.0
20260903111550 76 124 0.0 0.0 0.00 0.00 0.00 86 1014.0
20260903111044 76 124 0.0 0.0 0.00 0.00 0.00 86 1013.9
20260903110540 76 124 0.0 0.0 0.00 0.00 0.00 86 1013.8
20260903110040 76 124 0.0 0.0 0.00 0.00 0.00 86 1013.9
20260903105540 76 124 0.0 0.0 0.00 0.00 0.00 86 1013.8
20260903105039 77 124 0.0 0.0 0.00 0.00 0.00 86 1013.8
20260903104545 77 124 0.0 0.0 0.00 0.00 0.00 86 1013.8
20260903104036 77 124 0.0 0.0 0.00 0.00 0.00 87 1013.7
20260903103536 77 124 0.0 0.0 0.00 0.00 0.00 87 1013.6
20260903103049 77 124 0.0 0.0 0.00 0.00 0.00 86 1013.7
20260903102535 77 124 0.0 0.0 0.00 0.00 0.00 85 1013.6
20260903102034 77 124 0.0 0.0 0.00 0.00 0.00 85 1013.6
20260903101534 77 124 0.0 0.0 0.00 0.00 0.00 85 1013.6
20260903101037 77 124 0.0 0.0 0.00 0.00 0.00 85 1013.6
20260903100538 77 124 0.0 0.0 0.00 0.00 0.00 85 1013.6
20260903100036 77 124 0.0 0.0 0.00 0.00 0.00 85 1013.6
20260903095533 77 124 0.0 0.0 0.00 0.00 0.00 85 1013.6
20260903095032 77 124 0.0 0.0 0.00 0.00 0.00 85 1013.5
20260903094534 77 124 0.0 0.0 0.00 0.00 0.00 85 1013.5
20260903094035 77 124 0.0 0.0 0.00 0.00 0.00 85 1013.5
20260903093532 77 124 0.0 0.0 0.00 0.00 0.00 85 1013.5
20260903093044 77 124 0.0 0.0 0.00 0.00 0.00 84 1013.6
20260903092531 77 124 0.0 0.0 0.00 0.00 0.00 84 1013.6
20260903092035 77 124 0.0 0.0 0.00 0.00 0.00 84 1013.6
20260903091536 78 124 0.0 0.0 0.00 0.00 0.00 84 1013.5
20260903091031 78 124 0.0 0.0 0.00 0.00 0.00 84 1013.5
20260903090529 78 124 0.0 0.0 0.00 0.00 0.00 84 1013.4
20260903090033 78 124 0.0 0.0 0.00 0.00 0.00 84 1013.5
20260903085528 78 124 0.0 0.0 0.00 0.00 0.00 83 1013.4
20260903085027 78 124 0.0 0.0 0.00 0.00 0.00 83 1013.5
20260903084541 78 124 0.0 0.0 0.00 0.00 0.00 83 1013.5
20260903084027 78 124 0.0 0.0 0.00 0.00 0.00 83 1013.4
20260903083527 78 124 0.0 0.0 0.00 0.00 0.00 83 1013.4
20260903083027 78 124 0.0 0.0 0.00 0.00 0.00 83 1013.4
20260903082529 78 124 0.0 0.0 0.00 0.00 0.00 83 1013.4
20260903082026 78 124 0.0 0.0 0.00 0.00 0.00 83 1013.3
20260903081528 78 124 0.0 0.0 0.00 0.00 0.00 82 1013.3
20260903081030 78 124 0.0 0.0 0.00 0.00 0.00 82 1013.3
20260903080531 78 124 0.0 0.0 0.00 0.00 0.00 82 1013.2
20260903080025 78 124 0.0 0.0 0.00 0.00 0.00 82 1013.2
20260903075528 78 124 0.0 0.0 0.00 0.00 0.00 82 1013.2
20260903075023 78 124 0.0 0.0 0.00 0.00 0.00 82 1013.2
20260903074523 78 124 0.0 0.0 0.00 0.00 0.00 82 1013.1
20260903074026 79 124 0.0 0.0 0.00 0.00 0.00 82 1013.1
20260903073523 79 124 0.0 0.0 0.00 0.00 0.00 82 1013.1
20260903073026 79 124 0.0 0.0 0.00 0.00 0.00 82 1013.1
20260903072523 79 124 0.0 0.0 0.00 0.00 0.00 82 1013.2
20260903072025 79 124 0.0 0.0 0.00 0.00 0.00 82 1013.1
20260903071522 79 124 0.0 0.0 0.00 0.00 0.00 82 1013.1
20260903071023 79 124 0.0 0.0 0.00 0.00 0.00 82 1013.1
20260903070521 79 124 0.0 0.0 0.00 0.00 0.00 82 1013.2
20260903070026 79 124 0.0 0.0 0.00 0.00 0.00 81 1013.1
20260903065520 79 124 0.0 0.0 0.00 0.00 0.00 81 1013.0
20260903065019 79 124 0.0 0.0 0.00 0.00 0.00 81 1013.1
20260903064520 79 124 0.0 0.0 0.00 0.00 0.00 81 1013.2
20260903064019 79 124 0.0 0.0 0.00 0.00 0.00 81 1013.1
20260903063519 79 124 0.0 0.0 0.00 0.00 0.00 81 1013.2
20260903063018 79 124 0.0 0.0 0.00 0.00 0.00 81 1013.2
20260903062517 79 124 0.0 0.0 0.00 0.00 0.00 81 1013.2
20260903062017 79 124 0.0 0.0 0.00 0.00 0.00 81 1013.3
20260903061521 79 124 0.0 0.0 0.00 0.00 0.00 80 1013.3
20260903061018 80 124 0.0 0.0 0.00 0.00 0.00 80 1013.3
20260903060515 80 124 0.0 0.0 0.00 0.00 0.00 80 1013.4
20260903060017 80 124 0.0 0.0 0.00 0.00 0.00 80 1013.4
20260903055517 80 124 0.0 0.0 0.00 0.00 0.00 80 1013.4
20260903055014 80 124 0.0 0.0 0.00 0.00 0.00 79 1013.4
20260903054515 80 124 0.0 0.0 0.00 0.00 0.00 79 1013.4
20260903054013 80 124 0.0 0.0 0.00 0.00 0.00 79 1013.4
20260903053512 80 124 0.0 0.0 0.00 0.00 0.00 79 1013.4
20260903053012 80 124 0.0 0.0 0.00 0.00 0.00 78 1013.4
20260903052511 81 124 0.0 0.0 0.00 0.00 0.00 78 1013.4
20260903052011 81 124 0.0 0.0 0.00 0.00 0.00 78 1013.4
20260903051510 81 124 0.0 0.0 0.00 0.00 0.00 78 1013.4
20260903051009 81 124 0.0 0.0 0.00 0.00 0.00 78 1013.4
20260903050508 81 124 0.0 0.0 0.00 0.00 0.00 77 1013.5
20260903050033 81 124 0.0 0.0 0.00 0.00 0.00 77 1013.4
20260903045507 81 124 0.0 0.0 0.00 0.00 0.00 77 1013.3
20260903045006 81 124 0.0 0.0 0.00 0.00 0.00 77 1013.3
20260903044506 81 124 0.0 0.0 0.00 0.00 0.00 77 1013.2
20260903044006 81 124 0.0 0.0 0.00 0.00 0.00 77 1013.2
20260903043507 81 124 0.0 0.0 0.00 0.00 0.00 77 1013.2
20260903043005 81 124 0.0 0.0 0.00 0.00 0.00 77 1013.2
20260903042505 81 124 0.0 0.0 0.00 0.00 0.00 77 1013.2
20260903042005 81 124 0.0 0.0 0.00 0.00 0.00 77 1013.3
20260903041510 82 124 0.0 0.0 0.00 0.00 0.00 77 1013.3
20260903041005 81 124 0.0 0.0 0.00 0.00 0.00 77 1013.3
20260903040505 81 124 0.0 0.0 0.00 0.00 0.00 77 1013.3
20260903040004 81 124 0.0 0.0 0.00 0.00 0.00 78 1013.3
20260903035503 81 124 0.0 0.0 0.00 0.00 0.00 78 1013.3
20260903035004 81 124 0.0 0.0 0.00 0.00 0.00 78 1013.4
20260903034507 82 124 0.0 0.0 0.00 0.00 0.00 78 1013.4
20260903034004 82 124 0.0 0.0 0.00 0.00 0.00 77 1013.4
20260903033503 82 124 0.0 0.0 0.00 0.00 0.00 77 1013.4
20260903033003 82 124 0.0 0.0 0.00 0.00 0.00 77 1013.4
20260903032507 82 124 0.0 0.0 0.00 0.00 0.00 77 1013.4
20260903032004 82 124 0.0 0.0 0.00 0.00 0.00 77 1013.4
20260903031502 82 124 0.0 0.0 0.00 0.00 0.00 77 1013.4
20260903031003 82 124 0.0 0.0 0.00 0.00 0.00 76 1013.5
20260903030505 82 124 0.0 0.0 0.00 0.00 0.00 76 1013.4
20260903030003 83 124 0.0 0.0 0.00 0.00 0.00 76 1013.4
20260903025502 83 124 0.0 0.0 0.00 0.00 0.00 75 1013.4
20260903025002 83 124 0.0 0.0 0.00 0.00 0.00 74 1013.4
20260903024502 83 124 0.0 0.0 0.00 0.00 0.00 74 1013.4
20260903024004 84 124 0.0 0.0 0.00 0.00 0.00 74 1013.4
20260903023504 84 124 0.0 0.0 0.00 0.00 0.00 73 1013.4
20260903023004 84 124 0.0 0.0 0.00 0.00 0.00 72 1013.4
20260903022501 84 124 0.0 0.0 0.00 0.00 0.00 72 1013.3
20260903022002 84 124 0.0 0.0 0.00 0.00 0.00 72 1013.2
20260903021504 84 124 0.0 0.0 0.00 0.00 0.00 72 1013.2
20260903021002 85 124 0.0 0.0 0.00 0.00 0.00 72 1013.2
20260903020501 85 123 0.0 0.0 0.00 0.00 0.00 71 1013.2
20260903020004 85 124 0.0 0.0 0.00 0.00 0.00 71 1013.1
20260903015601 85 124 0.0 0.0 0.00 0.00 0.00 70 1013.1
20260903015101 85 124 0.0 0.0 0.00 0.00 0.00 70 1013.0
20260903014611 85 124 0.0 0.0 0.00 0.00 0.00 70 1013.0
20260903014103 86 124 0.0 0.0 0.00 0.00 0.00 69 1012.9
20260903013600 86 124 0.0 0.0 0.00 0.00 0.00 68 1012.8
20260903013059 86 124 0.0 0.0 0.00 0.00 0.00 68 1012.8
20260903012559 86 124 0.0 0.0 0.00 0.00 0.00 68 1012.7
20260903012100 86 124 0.0 0.0 0.00 0.00 0.00 67 1012.7
20260903011604 87 124 0.0 0.0 0.00 0.00 0.00 66 1012.7
20260903011059 87 124 0.0 0.0 0.00 0.00 0.00 66 1012.7
20260903010559 87 124 0.0 0.0 0.00 0.00 0.00 65 1012.7
20260903010059 87 124 0.0 0.0 0.00 0.00 0.00 65 1012.7
20260903005559 87 124 0.0 0.0 0.00 0.00 0.00 64 1012.6
20260903005100 88 124 0.0 0.0 0.00 0.00 0.00 64 1012.6
20260903004605 88 124 0.0 0.0 0.00 0.00 0.00 64 1012.6
20260903004058 88 124 0.0 0.0 0.00 0.00 0.00 63 1012.6
20260903003557 88 124 0.0 0.0 0.00 0.00 0.00 63 1012.7
20260903003057 89 124 0.0 0.0 0.00 0.00 0.00 62 1012.7
20260903002557 89 124 0.0 0.0 0.00 0.00 0.00 62 1012.7
20260903002057 90 124 0.0 0.0 0.00 0.00 0.00 61 1012.7
20260903001608 90 124 0.0 0.0 0.00 0.00 0.00 61 1012.7
20260903001058 91 124 0.0 0.0 0.00 0.00 0.00 61 1012.8
20260903000556 91 124 0.0 0.0 0.00 0.00 0.00 60 1012.7
20260903000100 91 124 0.0 0.0 0.00 0.00 0.00 59 1012.8
20260902235555 92 124 0.0 0.0 0.00 0.00 0.00 59 1012.8
20260902235054 92 124 0.0 0.0 0.00 0.00 0.00 57 1012.9
20260902234555 92 124 0.0 0.0 0.00 0.00 0.00 57 1012.9
20260902234054 93 124 0.0 0.0 0.00 0.00 0.00 57 1012.9
20260902233554 93 124 0.0 0.0 0.00 0.00 0.00 57 1012.9
20260902233057 94 124 0.0 0.0 0.00 0.00 0.00 55 1012.9
20260902232553 94 126 0.0 0.0 0.00 0.00 0.00 55 1012.9
20260902232053 94 126 0.0 0.0 0.00 0.00 0.00 54 1012.9
20260902231556 94 126 0.0 0.0 0.00 0.00 0.00 53 1013.0
20260902231055 95 130 0.0 0.0 0.00 0.00 0.00 53 1012.9
20260902230555 95 130 0.0 0.0 0.00 0.00 0.00 52 1012.9
20260902230053 95 130 0.0 0.0 0.00 0.00 0.00 53 1012.9
20260902225552 96 129 0.0 0.0 0.00 0.00 0.00 51 1012.9
20260902225055 96 103 0.0 0.0 0.00 0.00 0.00 52 1012.9
20260902224552 96 104 0.0 5.0 0.00 0.00 0.00 53 1013.0
20260902224051 96 112 0.0 5.0 0.00 0.00 0.00 52 1012.9
20260902223551 96 101 0.0 5.0 0.00 0.00 0.00 50 1013.0
20260902223052 97 89 0.0 5.0 0.00 0.00 0.00 50 1013.0
20260902222552 97 111 0.0 5.0 0.00 0.00 0.00 49 1013.0